Location: Morine Place
(33.9195°N, 107.5900°W)
Time: 20:28:28
(UTC+00:00)

LightSail 2 - Visible Passes

Search period start: 18 November 2019 00:00
Search period end: 28 November 2019 00:00
Orbit: 700 x 727 km, 24.0° (Epoch: 17 November)

Date Brightness Start Highest point End Pass type
(mag) Time Alt. Az. Time Alt. Az. Time Alt. Az.
18 Nov 7.0 12:03:51 16° SSW 12:05:07 17° SSW 12:08:29 10° SSE visible
19 Nov 7.4 11:09:35 16° SSE 11:09:35 16° SSE 11:11:09 10° SE visible
20 Nov 7.4 11:54:18 12° SSW 11:54:30 12° SSW 11:56:30 10° S visible
